Weather Service Report


807 
ASUS45 KCYS 011310
RWRWY 

WYOMING REGIONAL WEATHER ROUNDUP
NATIONAL WEATHER SERVICE CHEYENNE WY
700 AM MDT WED APR 01 2015

NOTE:  "FAIR" INDICATES FEW OR NO CLOUDS BELOW 12,000 FEET
WITH NO SIGNIFICANT WEATHER AND/OR OBSTRUCTIONS TO VISIBILITY.

WYZ001-011400-
YELLOWSTONE NATIONAL PARK
  
CITY           SKY/WX    TMP DP  RH WIND       PRES   REMARKS
LK YELLOWSTONE NOT AVBL                                               
W YELLOWSTONE  NOT AVBL                                               

$$
WYZ002>013-054>058-071-098>099-011400-
NORTHERN WYOMING
  
CITY           SKY/WX    TMP DP  RH WIND       PRES   REMARKS
JACKSON        PTCLDY    32  18  55 S12G17    29.92R WCI  23          
CODY           FAIR      34  27  75 N13       29.80R WCI  25          
GREYBULL       FAIR      44  27  51 NW30G36   29.73R                  
WORLAND        FAIR      43  29  57 N13       29.74R                  
SHERIDAN       CLOUDY    45  24  43 NW22G32   29.78R                  
BUFFALO        FAIR      41  33  73 NW29G40   29.75R                  
GILLETTE       FAIR      44  34  67 N16       29.72R                  
HULETT         FAIR      45  34  65 NW7       29.71S                  
NEWCASTLE      FAIR      46  32  57 NW24G31   29.66R                  

$$
WYZ014>020-022>026-101>103-011400-
CENTRAL WYOMING
  
CITY           SKY/WX    TMP DP  RH WIND       PRES   REMARKS
BIG PINEY      FAIR      29   8  41 N9        29.94R WCI  20          
PINEDALE       FAIR      32  14  47 W13       29.93R WCI  22          
DUBOIS         FAIR      32   9  37 W24G33    29.78S WCI  19          
LANDER         NOT AVBL                                               
RIVERTON       FAIR      44  23  43 NW20      29.74R                  
CASPER         CLOUDY    49  24  37 N7        29.72R                  
DOUGLAS        CLOUDY    52  24  33 CALM      29.72R                  

$$
WYZ021-027>030-104>119-011400-
SOUTHERN WYOMING
  
CITY           SKY/WX    TMP DP  RH WIND       PRES   REMARKS
EVANSTON       FAIR      29  15  56 W16       30.02R WCI  17          
FORT BRIDGER   FAIR      32  22  67 W12       30.03R WCI  23          
ROCK SPRINGS   FAIR      38  26  62 W22G31    29.93R WCI  27          
DIXON          CLOUDY    43  27  52 CALM      29.91R                  
RAWLINS        FAIR      41  25  53 SW14      29.83R                  
SARATOGA       FAIR      43  25  49 SW9       29.88R                  
LARAMIE        FAIR      39  20  46 NW7       29.83R WCI  34          
CHEYENNE       FAIR      50  19  29 NW8       29.78R                  
TORRINGTON     FAIR      51  19  28 NW9       29.66R                  
PINE BLUFFS    FAIR      43  27  52 CALM      29.73R                  

$$

Return to Home page


Western Regional Climate Center, wrcc@dri.edu